Location: Newark
(7.0858°N, 171.3717°E)
Time: 07:58:35
(UTC+00:00)

Courier 1B - Pass Details

Date: 27 November 2020
Orbit: 962 x 1209 km, 28.3° (Epoch: 20 January)

Event Time Altitude Azimuth Distance (km) Brightness Sun altitude
Rises 19:22:42 0° 286° (WNW) 4,097 10.1 11.3°
Reaches altitude 10° 19:25:43 10° 280° (W) 3,139 9.6 12.0°
Maximum altitude 19:33:03 43° 211° (SSW) 1,627 8.8 13.6°
Drops below altitude 10° 19:40:15 10° 142° (SE) 3,079 11.4 15.3°
Sets 19:43:12 0° 135° (SE) 4,012 12.1 15.9°
